Volver al catálogo

FENGYUN 1C DEB

ActivoPO
NORAD 29857·DEBRIS·🇨🇳 China

Lanzado May 10, 1999 desde Taiyuan Satellite Launch Center

Loading…

Próximos Pases (próximas 24 horas)

TLE

ActualizadoSource: Space-Track

Época: Sep 14, 2026, 09:54 UTC

1 29857U 99025FB  26257.41316571  .00000945  00000-0  78848-3 0  9992
2 29857  98.4338 240.8902 0189533 262.1786  95.7818 13.82732968985845

Sigue FENGYUN 1C DEB en tiempo real con AllMySat

Download on the App Store